Location: Vienna
(48.2082°N, 16.3738°E)
Time: 04:43:40
(UTC+02:00)

ISS - Visible Passes

Search period start: 20 September 2018 00:00
Search period end: 30 September 2018 00:00
Orbit: 402 x 408 km, 51.6° (Epoch: 20 September)

Date Brightness Start Highest point End Pass type
(mag) Time Alt. Az. Time Alt. Az. Time Alt. Az.
22 Sep -2.4 20:26:30 10° SSW 20:28:34 25° S 20:28:34 25° S visible
23 Sep -2.1 19:35:17 10° S 19:37:32 17° SE 19:39:12 13° ESE visible
23 Sep -1.9 21:10:21 10° WSW 21:11:54 25° WSW 21:11:54 25° WSW visible
24 Sep -3.7 20:18:26 10° SW 20:21:40 54° SSE 20:22:20 44° ESE visible
24 Sep -0.4 21:55:00 10° W 21:55:01 10° W 21:55:01 10° W visible
25 Sep -3.0 19:26:43 10° SSW 19:29:44 33° SE 19:32:36 11° E visible
25 Sep -2.7 21:02:51 10° W 21:05:17 43° WNW 21:05:17 43° WNW visible
26 Sep -3.9 20:10:44 10° WSW 20:14:02 85° NNW 20:15:26 32° ENE visible
26 Sep -0.6 21:47:36 10° WNW 21:48:06 14° WNW 21:48:06 14° WNW visible
27 Sep -3.7 19:18:44 10° SW 19:22:00 64° SSE 19:25:16 10° ENE visible
27 Sep -2.7 20:55:24 10° W 20:58:09 43° NW 20:58:09 43° NW visible
28 Sep -3.3 20:03:12 10° W 20:06:27 57° NNW 20:08:07 25° ENE visible
28 Sep -0.7 21:40:05 10° WNW 21:40:47 15° WNW 21:40:47 15° WNW visible
29 Sep -3.7 19:11:01 10° WSW 19:14:19 75° NNW 19:17:38 10° ENE visible
29 Sep -2.7 20:47:54 10° WNW 20:50:42 41° NNW 20:50:42 41° NNW visible
